EW5638 Weather Reports


time (UTC)temp
C
wind
direction
speed
KPH
gust
KPH
rain 1hr
cm
rain 24hr
cm
rain mn
cm
humidity
%
barometer
mb
20260504173024 3 292 0.0 4.8 0.03 0.43 0.43 100 1005.0
20260504171520 3 292 0.0 4.8 0.03 0.43 0.43 100 1005.0
20260504160104 3 300 1.6 6.4 0.15 0.38 0.38 100 1005.5
20260504120107 3 48 0.0 4.8 0.00 0.00 0.00 29 1005.4
20260504081544 -2 45 0.0 3.2 0.00 0.00 0.00 100 1005.8
20260504044543 0 297 0.0 1.6 0.00 0.00 0.00 12 1006.5
20260504043051 0 297 0.0 4.8 0.00 0.00 0.00 14 1006.5
20260504041535 0 297 0.0 3.2 0.00 0.00 0.00 14 1006.6
20260504040028 0 297 0.0 0.0 0.00 0.00 0.00 17 1006.7
20260504034523 0 297 0.0 1.6 0.00 0.00 0.00 21 1006.7
20260504033019 0 297 0.0 0.0 0.00 0.00 0.00 28 1006.6
20260504031515 0 297 0.0 0.0 0.00 0.00 0.00 34 1006.6
20260504030014 1 297 0.0 0.0 0.00 0.00 0.00 40 1006.6
20260504024506 1 297 0.0 0.0 0.00 0.00 0.00 46 1006.5
20260504023002 1 297 0.0 0.0 0.00 0.00 0.00 54 1006.6
20260504021558 2 297 0.0 0.0 0.00 0.00 0.00 56 1006.5
20260504020104 2 297 0.0 0.0 0.00 0.00 0.00 57 1006.5
20260504014549 2 297 0.0 0.0 0.00 0.00 0.00 57 1006.6
20260504013051 3 297 0.0 0.0 0.00 0.00 0.00 57 1006.6
20260504011540 3 297 0.0 0.0 0.00 0.00 0.00 56 1006.5
20260504010035 4 297 0.0 3.2 0.00 0.00 0.00 55 1006.4
20260504004541 5 297 0.0 4.8 0.00 0.00 0.00 54 1006.3
20260504003027 5 297 0.0 6.4 0.00 0.00 0.00 52 1006.2
20260504001531 6 297 0.0 9.7 0.00 0.00 0.00 51 1006.3
20260504000019 6 318 3.2 11.3 0.00 0.00 0.00 50 1006.2
20260503234518 6 350 3.2 16.1 0.00 0.05 0.00 49 1006.1
20260503233012 7 315 6.4 17.7 0.00 0.05 0.00 48 1005.9
20260503231505 7 315 6.4 17.7 0.00 0.05 0.00 47 1005.7
20260503230001 7 309 6.4 19.3 0.00 0.05 0.00 46 1005.7
20260503224557 8 253 6.4 25.7 0.00 0.13 0.00 46 1005.7
20260503223109 8 314 4.8 19.3 0.00 0.13 0.00 44 1005.5
20260503221551 8 269 9.7 22.5 0.00 0.13 0.00 43 1005.5
20260503220045 8 298 9.7 22.5 0.00 0.13 0.00 44 1005.5
20260503214552 8 311 8.0 20.9 0.00 0.13 0.00 44 1005.5
20260503213036 8 302 4.8 22.5 0.00 0.13 0.00 46 1005.5
20260503211531 7 279 6.4 19.3 0.00 0.13 0.00 47 1005.7
20260503210026 7 321 6.4 17.7 0.00 0.13 0.00 47 1005.7
20260503204527 7 248 4.8 19.3 0.00 0.13 0.00 47 1005.9
20260503203017 8 247 8.0 19.3 0.00 0.13 0.00 46 1005.8
20260503201513 8 245 9.7 24.1 0.00 0.13 0.00 44 1005.9
20260503200009 8 252 4.8 22.5 0.00 0.13 0.00 45 1006.0
20260503194505 8 300 6.4 20.9 0.00 0.13 0.00 44 1005.9
20260503193110 8 275 8.0 20.9 0.00 0.13 0.00 46 1005.9
20260503191601 8 274 8.0 17.7 0.00 0.13 0.00 45 1005.9
20260503190051 8 298 4.8 20.9 0.00 0.13 0.00 47 1005.8
20260503184547 8 292 8.0 22.5 0.00 0.15 0.00 45 1005.8
20260503183050 8 288 9.7 24.1 0.00 0.15 0.00 46 1005.9
20260503181555 8 277 6.4 19.3 0.00 0.15 0.00 46 1006.1
20260503180044 8 298 6.4 17.7 0.00 0.15 0.00 44 1006.2
20260503174529 8 246 6.4 24.1 0.00 0.15 0.00 44 1006.4